This is the latest recevied weather packets stored in our database for station/object WE0DX-1. If no packets are shown the sender has not sent any weather packets the latest 10 day(s).
| Time | Temp. | Humidity | Pressure | Rain* | Wind** | Luminosity | Snow |
|---|---|---|---|---|---|---|---|
| 1778126065 | 10° C | 58% | 1017.2 hPa | 0 mm | - | 0 W/m² | - |
| 1778125761 | 10° C | 51% | 1017.1 hPa | 0 mm | - | 0 W/m² | - |
| 1778125458 | 10.56° C | 55% | 1017.3 hPa | 0 mm | - | 0 W/m² | - |
| 1778125156 | 10.56° C | 49% | 1017.2 hPa | 0 mm | - | 0 W/m² | - |
| 1778124854 | 10.56° C | 44% | 1017.2 hPa | 0 mm | - | 0 W/m² | - |
| 1778124551 | 10.56° C | 47% | 1017.1 hPa | 0 mm | - | 0 W/m² | - |
| 1778124248 | 10.56° C | 47% | 1017.1 hPa | 0 mm | - | 0 W/m² | - |
| 1778123944 | 10.56° C | 47% | 1017.2 hPa | 0 mm | - | 0 W/m² | - |
| 1778123640 | 10.56° C | 47% | 1017.1 hPa | 0 mm | - | 0 W/m² | - |
| 1778123337 | 10.56° C | 48% | 1017.2 hPa | 0 mm | - | 0 W/m² | - |
| 1778123035 | 10° C | 49% | 1017.3 hPa | 0 mm | - | 0 W/m² | - |
| 1778122731 | 10° C | 57% | 1017.2 hPa | 0 mm | - | 0 W/m² | - |
| 1778122429 | 10° C | 59% | 1017.1 hPa | 0 mm | - | 0 W/m² | - |
| 1778122126 | 10° C | 57% | 1017 hPa | 0 mm | - | 0 W/m² | - |
| 1778121823 | 10° C | 55% | 1017.2 hPa | 0 mm | - | 0 W/m² | - |
| 1778121519 | 10° C | 54% | 1017 hPa | 0 mm | - | 0 W/m² | - |
| 1778121216 | 10° C | 53% | 1017 hPa | 0 mm | - | 0 W/m² | - |
| 1778120914 | 10° C | 51% | 1016.9 hPa | 0 mm | - | 0 W/m² | - |
| 1778120610 | 10° C | 49% | 1017.1 hPa | 0 mm | - | 0 W/m² | - |
| 1778120306 | 10.56° C | 50% | 1016.8 hPa | 0 mm | - | 0 W/m² | - |
| 1778120002 | 10.56° C | 47% | 1016.9 hPa | 0 mm | - | 0 W/m² | - |
| 1778119700 | 10.56° C | 45% | 1016.8 hPa | 0 mm | - | 0 W/m² | - |
| 1778119396 | 10.56° C | 45% | 1016.8 hPa | 0 mm | - | 0 W/m² | - |
| 1778119093 | 10.56° C | 48% | 1016.5 hPa | 0 mm | - | 0 W/m² | - |
| 1778118791 | 11.11° C | 50% | 1016.6 hPa | 0 mm | - | 0 W/m² | - |
* Rain latest hour (hover to see other rain measurements)
** Current wind speed in m/s (hover to see current wind gust speed)